Time,TemperatureF,DewpointF,PressureIn,WindDirection,WindDirectionDegrees,WindSpeedMPH,WindSpeedGustMPH,Humidity,HourlyPrecipIn,Conditions,Clouds,dailyrainin,SoftwareType,DateUTC
2013-07-23 00:01:00,69.1,66.7,0.00,SE,136,0.0,0.0,92,0.00,,---,0.00,VWS V13.01,2013-07-23 04:01:00,
2013-07-23 00:02:00,69.1,66.7,0.00,SE,136,0.0,0.0,92,0.00,,---,0.00,VWS V13.01,2013-07-23 04:02:00,
2013-07-23 00:03:00,69.1,66.7,0.00,SE,136,0.0,0.0,92,0.00,,---,0.00,VWS V13.01,2013-07-23 04:03:00,
2013-07-23 00:05:00,69.1,66.7,0.00,SE,136,0.0,0.0,92,0.00,,---,0.00,VWS V13.01,2013-07-23 04:05:00,
2013-07-23 00:10:00,69.1,66.7,0.00,SE,136,0.0,0.0,92,0.00,,---,0.00,VWS V13.01,2013-07-23 04:10:00,
2013-07-23 00:15:00,69.1,66.7,0.00,ESE,110,0.0,0.0,92,0.00,,---,0.00,VWS V13.01,2013-07-23 04:15:00,
2013-07-23 00:20:00,68.9,66.5,0.00,SE,141,0.0,0.0,92,0.00,,---,0.00,VWS V13.01,2013-07-23 04:20:00,
2013-07-23 00:25:00,68.9,66.5,0.00,SE,127,0.0,0.0,92,0.00,,---,0.00,VWS V13.01,2013-07-23 04:25:00,
2013-07-23 00:30:00,68.7,66.3,0.00,SE,134,0.0,0.0,92,0.00,,---,0.00,VWS V13.01,2013-07-23 04:30:00,
2013-07-23 00:35:00,68.7,66.3,0.00,SE,134,0.0,0.0,92,0.00,,---,0.00,VWS V13.01,2013-07-23 04:35:00,
2013-07-23 00:40:00,68.5,66.1,0.00,ESE,104,0.0,0.0,92,0.00,,---,0.00,VWS V13.01,2013-07-23 04:40:00,
2013-07-23 00:45:00,68.5,66.1,0.00,SSE,159,0.0,0.0,92,0.00,,---,0.00,VWS V13.01,2013-07-23 04:45:00,
2013-07-23 00:50:00,68.5,66.1,0.00,SSE,167,0.0,0.0,92,0.00,,---,0.00,VWS V13.01,2013-07-23 04:50:00,
2013-07-23 00:55:00,68.4,65.9,0.00,SE,140,2.7,4.9,92,0.00,,---,0.00,VWS V13.01,2013-07-23 04:55:00,
2013-07-23 01:00:00,68.4,65.9,0.00,ESE,109,0.0,0.0,92,0.00,,---,0.00,VWS V13.01,2013-07-23 05:00:00,
2013-07-23 01:05:00,68.4,65.9,0.00,SE,128,0.0,3.6,92,0.00,,---,0.00,VWS V13.01,2013-07-23 05:05:00,
2013-07-23 01:10:00,68.2,65.8,0.00,SE,136,4.0,4.0,92,0.00,,---,0.00,VWS V13.01,2013-07-23 05:10:00,
2013-07-23 01:15:00,68.2,65.8,0.00,South,183,0.0,4.0,92,0.00,,---,0.00,VWS V13.01,2013-07-23 05:15:00,
2013-07-23 01:20:00,68.2,65.8,0.00,SSE,166,0.0,4.0,92,0.00,,---,0.00,VWS V13.01,2013-07-23 05:20:00,
2013-07-23 01:26:00,68.2,65.8,0.00,SSE,167,0.0,4.0,92,0.00,,---,0.00,VWS V13.01,2013-07-23 05:26:00,
2013-07-23 01:31:00,68.2,65.8,0.00,South,177,0.0,0.0,92,0.00,,---,0.00,VWS V13.01,2013-07-23 05:31:00,
2013-07-23 01:36:00,68.2,65.5,0.00,South,177,0.0,0.0,91,0.00,,---,0.00,VWS V13.01,2013-07-23 05:36:00,
2013-07-23 01:41:00,68.0,65.3,0.00,SSE,154,0.0,0.0,91,0.00,,---,0.00,VWS V13.01,2013-07-23 05:41:00,
2013-07-23 01:46:00,68.0,65.3,0.00,SSE,154,0.0,0.0,91,0.00,,---,0.00,VWS V13.01,2013-07-23 05:46:00,
2013-07-23 01:51:00,68.0,65.3,0.00,SSE,154,0.0,0.0,91,0.00,,---,0.00,VWS V13.01,2013-07-23 05:51:00,
2013-07-23 01:56:00,68.0,65.6,0.00,SSE,152,0.0,0.0,92,0.00,,---,0.00,VWS V13.01,2013-07-23 05:56:00,
2013-07-23 02:01:00,67.8,65.4,0.00,SSE,152,0.0,0.0,92,0.00,,---,0.00,VWS V13.01,2013-07-23 06:01:00,
2013-07-23 02:06:00,67.8,65.4,0.00,SSE,151,0.0,0.0,92,0.00,,---,0.00,VWS V13.01,2013-07-23 06:06:00,
2013-07-23 02:11:00,67.8,65.4,0.00,South,178,0.0,0.0,92,0.00,,---,0.00,VWS V13.01,2013-07-23 06:11:00,
2013-07-23 02:16:00,67.8,65.4,0.00,South,177,0.0,0.0,92,0.00,,---,0.00,VWS V13.01,2013-07-23 06:16:00,
2013-07-23 02:21:00,67.8,65.4,0.00,South,189,0.0,0.0,92,0.00,,---,0.00,VWS V13.01,2013-07-23 06:21:00,
2013-07-23 02:26:00,67.6,65.2,0.00,South,189,0.0,0.0,92,0.00,,---,0.00,VWS V13.01,2013-07-23 06:26:00,
2013-07-23 02:31:00,67.6,65.2,0.00,SSW,209,0.0,0.0,92,0.00,,---,0.00,VWS V13.01,2013-07-23 06:31:00,
2013-07-23 02:36:00,67.6,65.2,0.00,SSW,209,0.0,0.0,92,0.00,,---,0.00,VWS V13.01,2013-07-23 06:36:00,
2013-07-23 02:41:00,67.6,65.2,0.00,SSW,209,0.0,0.0,92,0.00,,---,0.00,VWS V13.01,2013-07-23 06:41:00,
2013-07-23 02:46:00,67.5,65.1,0.00,SSW,209,0.0,0.0,92,0.00,,---,0.00,VWS V13.01,2013-07-23 06:46:00,
2013-07-23 02:51:00,67.5,65.1,0.00,SSW,209,0.0,0.0,92,0.00,,---,0.00,VWS V13.01,2013-07-23 06:51:00,
2013-07-23 02:56:00,67.3,64.9,0.00,ESE,119,0.0,0.0,92,0.00,,---,0.00,VWS V13.01,2013-07-23 06:56:00,
2013-07-23 03:01:00,67.3,65.2,0.00,ESE,123,0.0,0.0,93,0.00,,---,0.00,VWS V13.01,2013-07-23 07:01:00,
2013-07-23 03:07:00,67.3,64.9,0.00,ESE,123,0.0,0.0,92,0.00,,---,0.00,VWS V13.01,2013-07-23 07:07:00,
2013-07-23 03:12:00,67.3,64.9,0.00,ESE,122,0.0,0.0,92,0.00,,---,0.00,VWS V13.01,2013-07-23 07:12:00,
2013-07-23 03:17:00,67.3,64.9,0.00,ESE,123,0.0,0.0,92,0.00,,---,0.00,VWS V13.01,2013-07-23 07:17:00,
2013-07-23 03:22:00,67.3,64.9,0.00,ESE,123,0.0,0.0,92,0.00,,---,0.00,VWS V13.01,2013-07-23 07:22:00,
2013-07-23 03:27:00,67.3,64.9,0.00,ESE,123,0.0,0.0,92,0.00,,---,0.00,VWS V13.01,2013-07-23 07:27:00,
2013-07-23 03:32:00,67.3,64.9,0.00,ESE,123,0.0,0.0,92,0.00,,---,0.00,VWS V13.01,2013-07-23 07:32:00,
2013-07-23 03:37:00,67.1,65.0,0.00,ESE,123,0.0,0.0,93,0.00,,---,0.00,VWS V13.01,2013-07-23 07:37:00,
2013-07-23 03:42:00,67.1,65.0,0.00,ESE,123,0.0,0.0,93,0.00,,---,0.00,VWS V13.01,2013-07-23 07:42:00,
2013-07-23 03:47:00,66.9,64.8,0.00,ESE,123,0.0,0.0,93,0.00,,---,0.00,VWS V13.01,2013-07-23 07:47:00,
2013-07-23 03:52:00,66.9,64.8,0.00,ESE,123,0.0,0.0,93,0.00,,---,0.00,VWS V13.01,2013-07-23 07:52:00,
2013-07-23 03:57:00,66.9,65.1,0.00,ESE,123,0.0,0.0,94,0.00,,---,0.00,VWS V13.01,2013-07-23 07:57:00,
2013-07-23 04:02:00,66.9,65.1,0.00,ESE,123,0.0,0.0,94,0.00,,---,0.00,VWS V13.01,2013-07-23 08:02:00,
2013-07-23 04:07:00,66.9,65.1,0.00,ESE,123,0.0,0.0,94,0.00,,---,0.00,VWS V13.01,2013-07-23 08:07:00,
2013-07-23 04:12:00,66.9,65.1,0.00,ESE,123,0.0,0.0,94,0.00,,---,0.00,VWS V13.01,2013-07-23 08:12:00,
2013-07-23 04:17:00,66.9,65.1,0.00,ESE,123,0.0,0.0,94,0.00,,---,0.00,VWS V13.01,2013-07-23 08:17:00,
2013-07-23 04:22:00,66.9,65.4,0.00,ESE,123,0.0,0.0,95,0.00,,---,0.00,VWS V13.01,2013-07-23 08:22:00,
2013-07-23 04:27:00,66.9,65.4,0.00,ESE,123,0.0,0.0,95,0.00,,---,0.00,VWS V13.01,2013-07-23 08:27:00,
2013-07-23 04:32:00,66.9,65.4,0.00,ESE,123,0.0,0.0,95,0.00,,---,0.00,VWS V13.01,2013-07-23 08:32:00,
2013-07-23 04:37:00,66.9,65.4,0.00,ESE,123,0.0,0.0,95,0.00,,---,0.00,VWS V13.01,2013-07-23 08:37:00,
2013-07-23 04:42:00,66.9,65.4,0.00,ESE,123,0.0,0.0,95,0.00,,---,0.00,VWS V13.01,2013-07-23 08:42:00,
2013-07-23 04:47:00,66.9,65.4,0.00,ESE,123,0.0,0.0,95,0.00,,---,0.00,VWS V13.01,2013-07-23 08:47:00,
2013-07-23 04:53:00,66.9,65.4,0.00,ESE,123,0.0,0.0,95,0.00,,---,0.00,VWS V13.01,2013-07-23 08:53:00,
2013-07-23 04:58:00,66.9,65.4,0.00,ESE,123,0.0,0.0,95,0.00,,---,0.00,VWS V13.01,2013-07-23 08:58:00,
2013-07-23 05:03:00,66.7,65.3,0.00,SE,124,0.0,0.0,95,0.00,,---,0.00,VWS V13.01,2013-07-23 09:03:00,
2013-07-23 05:08:00,66.7,65.3,0.00,SE,124,0.0,0.0,95,0.00,,---,0.00,VWS V13.01,2013-07-23 09:08:00,
2013-07-23 05:13:00,66.7,65.3,0.00,SE,124,0.0,0.0,95,0.00,,---,0.00,VWS V13.01,2013-07-23 09:13:00,
2013-07-23 05:18:00,66.6,65.1,0.00,SE,124,0.0,0.0,95,0.00,,---,0.00,VWS V13.01,2013-07-23 09:18:00,
2013-07-23 05:23:00,66.6,65.1,0.00,SE,124,0.0,0.0,95,0.00,,---,0.00,VWS V13.01,2013-07-23 09:23:00,
2013-07-23 05:28:00,66.6,65.1,0.00,SE,124,0.0,0.0,95,0.00,,---,0.00,VWS V13.01,2013-07-23 09:28:00,
2013-07-23 05:33:00,66.6,65.1,0.00,SE,124,0.0,0.0,95,0.00,,---,0.00,VWS V13.01,2013-07-23 09:33:00,
2013-07-23 05:38:00,66.6,65.1,0.00,SE,124,0.0,0.0,95,0.00,,---,0.00,VWS V13.01,2013-07-23 09:38:00,
2013-07-23 05:43:00,66.4,64.9,0.00,SE,124,0.0,0.0,95,0.00,,---,0.00,VWS V13.01,2013-07-23 09:43:00,
2013-07-23 05:48:00,66.4,65.2,0.00,SE,124,0.0,0.0,96,0.00,,---,0.00,VWS V13.01,2013-07-23 09:48:00,
2013-07-23 05:53:00,66.6,65.4,0.00,SE,124,0.0,0.0,96,0.00,,---,0.00,VWS V13.01,2013-07-23 09:53:00,
2013-07-23 05:58:00,66.4,65.2,0.00,SE,124,0.0,0.0,96,0.00,,---,0.00,VWS V13.01,2013-07-23 09:58:00,
2013-07-23 06:03:00,66.4,64.9,0.00,SE,124,0.0,0.0,95,0.00,,---,0.00,VWS V13.01,2013-07-23 10:03:00,
2013-07-23 06:08:00,66.4,64.9,0.00,SE,124,0.0,0.0,95,0.00,,---,0.00,VWS V13.01,2013-07-23 10:08:00,
2013-07-23 06:13:00,66.4,64.9,0.00,SE,124,0.0,0.0,95,0.00,,---,0.00,VWS V13.01,2013-07-23 10:13:00,
2013-07-23 06:18:00,66.4,64.9,0.00,SE,124,0.0,0.0,95,0.00,,---,0.00,VWS V13.01,2013-07-23 10:18:00,
2013-07-23 06:23:00,66.4,65.2,0.00,SE,124,0.0,0.0,96,0.00,,---,0.00,VWS V13.01,2013-07-23 10:23:00,
2013-07-23 06:28:00,66.4,65.2,0.00,SE,124,0.0,0.0,96,0.00,,---,0.00,VWS V13.01,2013-07-23 10:28:00,
2013-07-23 06:33:00,66.4,65.2,0.00,SE,145,0.0,0.0,96,0.00,,---,0.00,VWS V13.01,2013-07-23 10:33:00,
2013-07-23 06:39:00,66.4,65.2,0.00,SSW,211,0.0,0.0,96,0.00,,---,0.00,VWS V13.01,2013-07-23 10:39:00,
2013-07-23 06:44:00,66.6,65.7,0.00,SW,226,0.0,0.0,97,0.00,,---,0.00,VWS V13.01,2013-07-23 10:44:00,
2013-07-23 06:49:00,66.7,65.9,0.00,SW,235,0.0,0.0,97,0.00,,---,0.00,VWS V13.01,2013-07-23 10:49:00,
2013-07-23 06:54:00,67.6,66.8,0.00,SW,235,0.0,0.0,97,0.00,,---,0.00,VWS V13.01,2013-07-23 10:54:00,
2013-07-23 06:59:00,68.5,67.4,0.00,WSW,237,0.0,0.0,96,0.00,,---,0.00,VWS V13.01,2013-07-23 10:59:00,
2013-07-23 07:04:00,69.3,68.1,0.00,WSW,237,0.0,0.0,96,0.00,,---,0.00,VWS V13.01,2013-07-23 11:04:00,
2013-07-23 07:09:00,70.3,68.5,0.00,WSW,237,0.0,0.0,94,0.00,,---,0.00,VWS V13.01,2013-07-23 11:09:00,
2013-07-23 07:14:00,70.9,68.1,0.00,WSW,237,0.0,0.0,91,0.00,,---,0.00,VWS V13.01,2013-07-23 11:14:00,
2013-07-23 07:19:00,71.8,68.0,0.00,WSW,237,0.0,0.0,88,0.00,,---,0.00,VWS V13.01,2013-07-23 11:19:00,
2013-07-23 07:24:00,72.1,67.4,0.00,SW,229,0.0,0.0,85,0.00,,---,0.00,VWS V13.01,2013-07-23 11:24:00,
2013-07-23 07:29:00,72.7,67.2,0.00,SW,234,0.0,0.0,83,0.00,,---,0.00,VWS V13.01,2013-07-23 11:29:00,
2013-07-23 07:34:00,73.8,67.2,0.00,South,191,0.0,0.0,80,0.00,,---,0.00,VWS V13.01,2013-07-23 11:34:00,
2013-07-23 07:39:00,74.3,67.0,0.00,WSW,248,0.0,3.6,78,0.00,,---,0.00,VWS V13.01,2013-07-23 11:39:00,
2013-07-23 07:44:00,74.8,66.8,0.00,SW,235,0.0,4.0,76,0.00,,---,0.00,VWS V13.01,2013-07-23 11:44:00,
2013-07-23 07:49:00,75.4,66.5,0.00,WSW,244,0.0,4.0,74,0.00,,---,0.00,VWS V13.01,2013-07-23 11:49:00,
2013-07-23 07:54:00,75.0,66.2,0.00,West,262,0.0,3.1,74,0.00,,---,0.00,VWS V13.01,2013-07-23 11:54:00,
2013-07-23 07:59:00,74.8,65.6,0.00,SW,234,0.0,3.1,73,0.00,,---,0.00,VWS V13.01,2013-07-23 11:59:00,
2013-07-23 08:04:00,74.3,65.5,0.00,West,265,0.0,0.0,74,0.00,,---,0.00,VWS V13.01,2013-07-23 12:04:00,
2013-07-23 08:09:00,73.8,65.3,0.00,WSW,246,0.0,4.0,75,0.00,,---,0.00,VWS V13.01,2013-07-23 12:09:00,
2013-07-23 08:14:00,73.8,65.3,0.00,WSW,244,0.0,0.0,75,0.00,,---,0.00,VWS V13.01,2013-07-23 12:14:00,
2013-07-23 08:20:00,73.8,65.3,0.00,WSW,239,0.0,0.0,75,0.00,,---,0.00,VWS V13.01,2013-07-23 12:20:00,
2013-07-23 08:25:00,75.2,66.3,0.00,SW,236,0.0,0.0,74,0.00,,---,0.00,VWS V13.01,2013-07-23 12:25:00,
2013-07-23 08:30:00,76.1,66.8,0.00,SW,236,0.0,0.0,73,0.00,,---,0.00,VWS V13.01,2013-07-23 12:30:00,
2013-07-23 08:35:00,77.0,66.5,0.00,SW,236,0.0,0.0,70,0.00,,---,0.00,VWS V13.01,2013-07-23 12:35:00,
2013-07-23 08:40:00,77.2,65.8,0.00,SW,236,0.0,0.0,68,0.00,,---,0.00,VWS V13.01,2013-07-23 12:40:00,
2013-07-23 08:45:00,77.5,66.2,0.00,West,278,0.0,3.1,68,0.00,,---,0.00,VWS V13.01,2013-07-23 12:45:00,
2013-07-23 08:50:00,78.1,66.7,0.00,WSW,247,0.0,0.0,68,0.00,,---,0.00,VWS V13.01,2013-07-23 12:50:00,
2013-07-23 08:55:00,78.4,66.6,0.00,WSW,250,0.0,0.0,67,0.00,,---,0.00,VWS V13.01,2013-07-23 12:55:00,
2013-07-23 09:00:00,78.6,66.3,0.00,SW,222,0.0,0.0,66,0.00,,---,0.00,VWS V13.01,2013-07-23 13:00:00,
2013-07-23 09:05:00,79.0,65.8,0.00,WSW,253,0.0,0.0,64,0.00,,---,0.00,VWS V13.01,2013-07-23 13:05:00,
2013-07-23 09:10:00,79.2,66.4,0.00,WSW,246,0.0,0.0,65,0.00,,---,0.00,VWS V13.01,2013-07-23 13:10:00,
2013-07-23 09:15:00,79.0,65.8,0.00,WSW,253,0.0,0.0,64,0.00,,---,0.00,VWS V13.01,2013-07-23 13:15:00,
2013-07-23 09:20:00,78.8,65.6,0.00,SW,223,0.0,0.0,64,0.00,,---,0.00,VWS V13.01,2013-07-23 13:20:00,
2013-07-23 09:25:00,79.3,67.0,0.00,SW,214,0.0,4.0,66,0.00,,---,0.00,VWS V13.01,2013-07-23 13:25:00,
2013-07-23 09:30:00,79.7,67.3,0.00,West,266,0.0,0.0,66,0.00,,---,0.00,VWS V13.01,2013-07-23 13:30:00,
2013-07-23 09:35:00,79.2,66.4,0.00,WSW,254,0.0,0.0,65,0.00,,---,0.00,VWS V13.01,2013-07-23 13:35:00,
2013-07-23 09:41:00,79.9,66.6,0.00,West,259,0.0,0.0,64,0.00,,---,0.00,VWS V13.01,2013-07-23 13:41:00,
2013-07-23 09:46:00,80.2,66.5,0.00,West,260,3.1,3.1,63,0.00,,---,0.00,VWS V13.01,2013-07-23 13:46:00,
2013-07-23 09:51:00,80.6,67.3,0.00,WSW,254,0.0,0.0,64,0.00,,---,0.00,VWS V13.01,2013-07-23 13:51:00,
2013-07-23 09:56:00,80.8,67.0,0.00,WSW,246,0.0,2.7,63,0.00,,---,0.00,VWS V13.01,2013-07-23 13:56:00,
2013-07-23 10:01:00,81.0,66.7,0.00,WSW,251,0.0,0.0,62,0.00,,---,0.00,VWS V13.01,2013-07-23 14:01:00,
2013-07-23 10:06:00,81.1,66.9,0.00,West,264,0.0,0.0,62,0.00,,---,0.00,VWS V13.01,2013-07-23 14:06:00,
2013-07-23 10:11:00,80.8,65.6,0.00,WSW,241,0.0,0.0,60,0.00,,---,0.00,VWS V13.01,2013-07-23 14:11:00,
2013-07-23 10:16:00,81.1,66.4,0.00,West,262,0.0,3.6,61,0.00,,---,0.00,VWS V13.01,2013-07-23 14:16:00,
2013-07-23 10:21:00,81.5,66.8,0.00,WSW,257,0.0,2.7,61,0.00,,---,0.00,VWS V13.01,2013-07-23 14:21:00,
2013-07-23 10:26:00,81.3,66.1,0.00,West,271,0.0,4.9,60,0.00,,---,0.00,VWS V13.01,2013-07-23 14:26:00,
2013-07-23 10:31:00,81.9,66.1,0.00,SW,232,0.0,0.0,59,0.00,,---,0.00,VWS V13.01,2013-07-23 14:31:00,
2013-07-23 10:36:00,82.2,66.5,0.00,WSW,243,0.0,5.8,59,0.00,,---,0.00,VWS V13.01,2013-07-23 14:36:00,
2013-07-23 10:41:00,82.6,66.3,0.00,WSW,247,0.0,0.0,58,0.00,,---,0.00,VWS V13.01,2013-07-23 14:41:00,
2013-07-23 10:46:00,82.4,67.1,0.00,SW,226,0.0,3.6,60,0.00,,---,0.00,VWS V13.01,2013-07-23 14:46:00,
2013-07-23 10:51:00,82.6,65.8,0.00,WSW,243,0.0,0.0,57,0.00,,---,0.00,VWS V13.01,2013-07-23 14:51:00,
2013-07-23 10:56:00,81.7,65.5,0.00,WSW,249,0.0,0.0,58,0.00,,---,0.00,VWS V13.01,2013-07-23 14:56:00,
2013-07-23 11:01:00,81.9,65.7,0.00,SW,231,0.0,0.0,58,0.00,,---,0.00,VWS V13.01,2013-07-23 15:01:00,
2013-07-23 11:06:00,82.6,67.3,0.00,SW,234,2.7,4.9,60,0.00,,---,0.00,VWS V13.01,2013-07-23 15:06:00,
2013-07-23 11:11:00,82.6,65.8,0.00,WSW,247,0.0,0.0,57,0.00,,---,0.00,VWS V13.01,2013-07-23 15:11:00,
2013-07-23 11:16:00,82.8,66.5,0.00,West,265,0.0,2.2,58,0.00,,---,0.00,VWS V13.01,2013-07-23 15:16:00,
2013-07-23 11:22:00,82.9,67.2,0.00,West,268,0.0,0.0,59,0.00,,---,0.00,VWS V13.01,2013-07-23 15:22:00,
2013-07-23 11:27:00,82.6,65.8,0.00,WSW,245,0.0,4.0,57,0.00,,---,0.00,VWS V13.01,2013-07-23 15:27:00,
2013-07-23 11:32:00,82.8,66.0,0.00,West,268,3.6,4.5,57,0.00,,---,0.00,VWS V13.01,2013-07-23 15:32:00,
2013-07-23 11:37:00,82.8,66.0,0.00,SSW,213,4.9,4.9,57,0.00,,---,0.00,VWS V13.01,2013-07-23 15:37:00,
2013-07-23 11:42:00,83.5,66.7,0.00,West,266,3.1,3.1,57,0.00,,---,0.00,VWS V13.01,2013-07-23 15:42:00,
2013-07-23 11:47:00,82.9,66.7,0.00,WSW,257,0.0,3.6,58,0.00,,---,0.00,VWS V13.01,2013-07-23 15:47:00,
2013-07-23 11:52:00,82.9,66.7,0.00,WSW,249,0.0,2.7,58,0.00,,---,0.00,VWS V13.01,2013-07-23 15:52:00,
2013-07-23 11:57:00,82.6,65.3,0.00,West,265,4.0,4.9,56,0.00,,---,0.00,VWS V13.01,2013-07-23 15:57:00,
2013-07-23 12:02:00,82.4,64.1,0.00,West,261,0.0,3.6,54,0.00,,---,0.00,VWS V13.01,2013-07-23 16:02:00,
2013-07-23 12:07:00,82.9,64.6,0.00,West,274,0.0,4.0,54,0.00,,---,0.00,VWS V13.01,2013-07-23 16:07:00,
2013-07-23 12:12:00,83.3,66.5,0.00,WSW,253,0.0,0.0,57,0.00,,---,0.00,VWS V13.01,2013-07-23 16:12:00,
2013-07-23 12:17:00,82.4,64.6,0.00,West,260,0.0,0.0,55,0.00,,---,0.00,VWS V13.01,2013-07-23 16:17:00,
2013-07-23 12:22:00,82.2,63.9,0.00,West,266,0.0,0.0,54,0.00,,---,0.00,VWS V13.01,2013-07-23 16:22:00,
2013-07-23 12:27:00,82.6,65.8,0.00,WSW,250,6.3,6.3,57,0.00,,---,0.00,VWS V13.01,2013-07-23 16:27:00,
2013-07-23 12:32:00,83.3,65.5,0.00,SW,220,5.4,6.3,55,0.00,,---,0.00,VWS V13.01,2013-07-23 16:32:00,
2013-07-23 12:37:00,83.5,65.6,0.00,SW,223,3.1,6.3,55,0.00,,---,0.00,VWS V13.01,2013-07-23 16:37:00,
2013-07-23 12:42:00,83.7,64.7,0.00,WSW,238,3.6,5.4,53,0.00,,---,0.00,VWS V13.01,2013-07-23 16:42:00,
2013-07-23 12:47:00,83.8,65.4,0.00,West,261,2.2,5.4,54,0.00,,---,0.00,VWS V13.01,2013-07-23 16:47:00,
2013-07-23 12:52:00,84.0,65.1,0.00,WSW,252,0.0,4.0,53,0.00,,---,0.00,VWS V13.01,2013-07-23 16:52:00,
2013-07-23 12:58:00,84.0,65.1,0.00,WSW,251,3.1,5.4,53,0.00,,---,0.00,VWS V13.01,2013-07-23 16:58:00,
2013-07-23 13:03:00,84.2,63.6,0.00,SW,233,2.7,5.8,50,0.00,,---,0.00,VWS V13.01,2013-07-23 17:03:00,
2013-07-23 13:08:00,84.2,63.6,0.00,WSW,258,3.1,5.8,50,0.00,,---,0.00,VWS V13.01,2013-07-23 17:08:00,
2013-07-23 13:13:00,84.4,63.7,0.00,West,271,2.7,4.0,50,0.00,,---,0.00,VWS V13.01,2013-07-23 17:13:00,
2013-07-23 13:18:00,84.2,61.8,0.00,South,190,4.0,4.9,47,0.00,,---,0.00,VWS V13.01,2013-07-23 17:18:00,
2013-07-23 13:23:00,84.6,63.9,0.00,WSW,238,5.8,5.8,50,0.00,,---,0.00,VWS V13.01,2013-07-23 17:23:00,
2013-07-23 13:28:00,84.0,61.0,0.00,West,265,2.7,6.3,46,0.00,,---,0.00,VWS V13.01,2013-07-23 17:28:00,
2013-07-23 13:33:00,84.2,63.6,0.00,SW,236,0.0,4.9,50,0.00,,---,0.00,VWS V13.01,2013-07-23 17:33:00,
2013-07-23 13:38:00,84.2,63.0,0.00,SSW,210,5.4,5.4,49,0.00,,---,0.00,VWS V13.01,2013-07-23 17:38:00,
2013-07-23 13:43:00,84.0,61.6,0.00,SW,223,4.0,6.3,47,0.00,,---,0.00,VWS V13.01,2013-07-23 17:43:00,
2013-07-23 13:49:00,84.0,62.2,0.00,WSW,258,3.6,6.3,48,0.00,,---,0.00,VWS V13.01,2013-07-23 17:49:00,
2013-07-23 13:54:00,84.2,62.4,0.00,SW,230,3.1,5.4,48,0.00,,---,0.00,VWS V13.01,2013-07-23 17:54:00,
2013-07-23 13:59:00,84.2,61.8,0.00,WSW,240,3.1,5.4,47,0.00,,---,0.00,VWS V13.01,2013-07-23 17:59:00,
2013-07-23 14:04:00,84.0,62.8,0.00,SW,220,4.9,4.9,49,0.00,,---,0.00,VWS V13.01,2013-07-23 18:04:00,
2013-07-23 14:10:00,84.4,62.0,0.00,West,260,3.1,3.1,47,0.00,,---,0.00,VWS V13.01,2013-07-23 18:10:00,
2013-07-23 14:16:00,84.2,61.2,0.00,West,259,7.6,7.6,46,0.00,,---,0.00,VWS V13.01,2013-07-23 18:16:00,
2013-07-23 14:22:00,84.4,61.4,0.00,SW,232,3.1,6.3,46,0.00,,---,0.00,VWS V13.01,2013-07-23 18:22:00,
2013-07-23 14:28:00,84.4,60.1,0.00,SW,221,3.1,6.3,44,0.00,,---,0.00,VWS V13.01,2013-07-23 18:28:00,
2013-07-23 14:33:00,84.2,60.6,0.00,SSW,211,4.0,8.3,45,0.00,,---,0.00,VWS V13.01,2013-07-23 18:33:00,
2013-07-23 14:38:00,84.0,61.0,0.00,WSW,254,5.4,8.3,46,0.00,,---,0.00,VWS V13.01,2013-07-23 18:38:00,
2013-07-23 14:45:00,84.0,62.2,0.00,SSW,210,3.1,8.3,48,0.00,,---,0.00,VWS V13.01,2013-07-23 18:45:00,
2013-07-23 14:50:00,84.0,62.8,0.00,WSW,243,4.0,4.9,49,0.00,,---,0.00,VWS V13.01,2013-07-23 18:50:00,
2013-07-23 14:55:00,84.0,61.6,0.00,West,266,5.4,6.3,47,0.00,,---,0.00,VWS V13.01,2013-07-23 18:55:00,
2013-07-23 15:01:00,84.0,61.0,0.00,West,263,4.5,5.8,46,0.00,,---,0.00,VWS V13.01,2013-07-23 19:01:00,
2013-07-23 15:06:00,84.0,61.0,0.00,WSW,257,3.1,8.3,46,0.00,,---,0.00,VWS V13.01,2013-07-23 19:06:00,
2013-07-23 15:11:00,84.4,62.6,0.00,West,267,4.0,4.0,48,0.00,,---,0.00,VWS V13.01,2013-07-23 19:11:00,
2013-07-23 15:18:00,84.4,61.4,0.00,WSW,243,3.6,6.3,46,0.00,,---,0.00,VWS V13.01,2013-07-23 19:18:00,
2013-07-23 15:23:00,84.2,60.6,0.00,WSW,249,3.1,8.7,45,0.00,,---,0.00,VWS V13.01,2013-07-23 19:23:00,
2013-07-23 15:28:00,83.8,60.9,0.00,WSW,257,4.0,8.7,46,0.00,,---,0.00,VWS V13.01,2013-07-23 19:28:00,
2013-07-23 15:33:00,82.6,59.7,0.00,SW,217,3.6,5.4,46,0.00,,---,0.00,VWS V13.01,2013-07-23 19:33:00,
2013-07-23 15:39:00,81.9,59.1,0.00,West,262,0.0,6.3,46,0.00,,---,0.00,VWS V13.01,2013-07-23 19:39:00,
2013-07-23 15:44:00,81.7,61.2,0.00,WSW,247,4.9,4.9,50,0.00,,---,0.00,VWS V13.01,2013-07-23 19:44:00,
2013-07-23 15:49:00,81.7,61.8,0.00,West,277,3.6,6.3,51,0.00,,---,0.00,VWS V13.01,2013-07-23 19:49:00,
2013-07-23 15:55:00,82.4,63.0,0.00,West,260,4.0,4.9,52,0.00,,---,0.00,VWS V13.01,2013-07-23 19:55:00,
2013-07-23 16:00:00,82.9,64.6,0.00,SSW,211,3.1,5.4,54,0.00,,---,0.00,VWS V13.01,2013-07-23 20:00:00,
2013-07-23 16:05:00,82.4,61.3,0.00,SW,225,6.3,7.2,49,0.00,,---,0.00,VWS V13.01,2013-07-23 20:05:00,
2013-07-23 16:10:00,81.7,60.1,0.00,WSW,258,2.7,5.4,48,0.00,,---,0.00,VWS V13.01,2013-07-23 20:10:00,
2013-07-23 16:16:00,81.7,61.2,0.00,SW,232,4.0,6.3,50,0.00,,---,0.00,VWS V13.01,2013-07-23 20:16:00,
2013-07-23 16:21:00,82.0,62.7,0.00,WSW,238,0.0,4.9,52,0.00,,---,0.00,VWS V13.01,2013-07-23 20:21:00,
2013-07-23 16:26:00,82.6,64.8,0.00,West,274,3.1,8.1,55,0.00,,---,0.00,VWS V13.01,2013-07-23 20:26:00,
2013-07-23 16:31:00,82.9,64.6,0.00,SW,218,3.1,4.0,54,0.00,,---,0.00,VWS V13.01,2013-07-23 20:31:00,
2013-07-23 16:36:00,82.9,62.4,0.00,SW,218,4.5,5.8,50,0.00,,---,0.00,VWS V13.01,2013-07-23 20:36:00,
2013-07-23 16:42:00,82.0,61.0,0.00,SW,231,5.4,8.7,49,0.00,,---,0.00,VWS V13.01,2013-07-23 20:42:00,
2013-07-23 16:47:00,81.3,61.5,0.00,WSW,248,2.7,8.7,51,0.00,,---,0.00,VWS V13.01,2013-07-23 20:47:00,
2013-07-23 16:52:00,80.8,62.1,0.00,West,260,3.1,5.4,53,0.00,,---,0.00,VWS V13.01,2013-07-23 20:52:00,
2013-07-23 16:58:00,80.4,61.7,0.00,West,271,2.7,10.1,53,0.00,,---,0.00,VWS V13.01,2013-07-23 20:58:00,
2013-07-23 17:03:00,79.9,61.8,0.00,West,260,3.6,5.8,54,0.00,,---,0.00,VWS V13.01,2013-07-23 21:03:00,
2013-07-23 17:09:00,79.5,61.4,0.00,WSW,240,3.1,10.1,54,0.00,,---,0.00,VWS V13.01,2013-07-23 21:09:00,
2013-07-23 17:15:00,79.3,61.8,0.00,SW,220,4.0,6.3,55,0.00,,---,0.00,VWS V13.01,2013-07-23 21:15:00,
2013-07-23 17:21:00,79.2,61.6,0.00,SW,220,9.6,9.6,55,0.00,,---,0.00,VWS V13.01,2013-07-23 21:21:00,
2013-07-23 17:26:00,78.8,61.8,0.00,SW,220,4.9,9.6,56,0.00,,---,0.00,VWS V13.01,2013-07-23 21:26:00,
2013-07-23 17:31:00,78.4,61.5,0.00,SW,218,5.8,11.0,56,0.00,,---,0.00,VWS V13.01,2013-07-23 21:31:00,
2013-07-23 17:38:00,78.1,61.6,0.00,WSW,241,3.1,11.0,57,0.00,,---,0.00,VWS V13.01,2013-07-23 21:38:00,
2013-07-23 17:43:00,77.7,62.3,0.00,WSW,256,3.6,5.4,59,0.00,,---,0.00,VWS V13.01,2013-07-23 21:43:00,
2013-07-23 17:48:00,77.4,61.9,0.00,WSW,256,4.0,5.8,59,0.00,,---,0.00,VWS V13.01,2013-07-23 21:48:00,
2013-07-23 17:53:00,77.0,62.1,0.00,WSW,250,0.0,5.4,60,0.00,,---,0.00,VWS V13.01,2013-07-23 21:53:00,
2013-07-23 17:59:00,76.8,61.9,0.00,WSW,248,0.0,5.4,60,0.00,,---,0.00,VWS V13.01,2013-07-23 21:59:00,
2013-07-23 18:05:00,76.5,62.5,0.00,SW,217,0.0,4.0,62,0.00,,---,0.00,VWS V13.01,2013-07-23 22:05:00,
2013-07-23 18:10:00,76.1,62.2,0.00,West,267,2.7,3.6,62,0.00,,---,0.00,VWS V13.01,2013-07-23 22:10:00,
2013-07-23 18:16:00,75.9,62.9,0.00,SSW,210,0.0,4.9,64,0.00,,---,0.00,VWS V13.01,2013-07-23 22:16:00,
2013-07-23 18:21:00,75.9,62.9,0.00,WSW,258,0.0,0.0,64,0.00,,---,0.00,VWS V13.01,2013-07-23 22:21:00,
2013-07-23 18:27:00,75.6,62.5,0.00,WSW,239,2.7,3.6,64,0.00,,---,0.00,VWS V13.01,2013-07-23 22:27:00,
2013-07-23 18:32:00,75.4,62.8,0.00,SW,228,3.6,4.9,65,0.00,,---,0.00,VWS V13.01,2013-07-23 22:32:00,
2013-07-23 18:39:00,75.0,62.5,0.00,WSW,243,2.2,5.4,65,0.00,,---,0.00,VWS V13.01,2013-07-23 22:39:00,
2013-07-23 18:45:00,74.8,62.7,0.00,WSW,256,0.0,3.6,66,0.00,,---,0.00,VWS V13.01,2013-07-23 22:45:00,
2013-07-23 18:50:00,74.7,63.0,0.00,SW,233,0.0,3.1,67,0.00,,---,0.00,VWS V13.01,2013-07-23 22:50:00,
2013-07-23 18:56:00,74.7,63.4,0.00,SSW,213,0.0,4.0,68,0.00,,---,0.00,VWS V13.01,2013-07-23 22:56:00,
2013-07-23 19:01:00,74.5,63.7,0.00,SW,215,0.0,0.0,69,0.00,,---,0.00,VWS V13.01,2013-07-23 23:01:00,
2013-07-23 19:07:00,74.3,63.5,0.00,SW,226,0.0,2.7,69,0.00,,---,0.00,VWS V13.01,2013-07-23 23:07:00,
2013-07-23 19:12:00,74.1,63.7,0.00,West,266,0.0,0.0,70,0.00,,---,0.00,VWS V13.01,2013-07-23 23:12:00,
2013-07-23 19:17:00,73.9,63.5,0.00,WSW,242,0.0,0.0,70,0.00,,---,0.00,VWS V13.01,2013-07-23 23:17:00,
2013-07-23 19:23:00,73.8,63.8,0.00,WSW,242,0.0,0.0,71,0.00,,---,0.00,VWS V13.01,2013-07-23 23:23:00,
2013-07-23 19:29:00,73.8,63.8,0.00,SW,222,2.2,3.6,71,0.00,,---,0.00,VWS V13.01,2013-07-23 23:29:00,
2013-07-23 19:34:00,73.6,64.0,0.00,WSW,253,0.0,4.0,72,0.00,,---,0.00,VWS V13.01,2013-07-23 23:34:00,
2013-07-23 19:40:00,73.4,63.8,0.00,WSW,238,0.0,0.0,72,0.00,,---,0.00,VWS V13.01,2013-07-23 23:40:00,
2013-07-23 19:46:00,73.2,64.1,0.00,WSW,239,0.0,0.0,73,0.00,,---,0.00,VWS V13.01,2013-07-23 23:46:00,
2013-07-23 19:51:00,73.0,64.7,0.00,WSW,239,0.0,0.0,75,0.00,,---,0.00,VWS V13.01,2013-07-23 23:51:00,
2013-07-23 19:56:00,72.9,65.2,0.00,WSW,240,0.0,0.0,77,0.00,,---,0.00,VWS V13.01,2013-07-23 23:56:00,
2013-07-23 20:02:00,72.7,65.4,0.00,WSW,240,0.0,0.0,78,0.00,,---,0.00,VWS V13.01,2013-07-24 00:02:00,
2013-07-23 20:08:00,72.3,65.4,0.00,WSW,240,0.0,0.0,79,0.00,,---,0.00,VWS V13.01,2013-07-24 00:08:00,
2013-07-23 20:13:00,72.0,65.5,0.00,WSW,240,0.0,0.0,80,0.00,,---,0.00,VWS V13.01,2013-07-24 00:13:00,
2013-07-23 20:19:00,71.8,65.6,0.00,WSW,240,0.0,0.0,81,0.00,,---,0.00,VWS V13.01,2013-07-24 00:19:00,
2013-07-23 20:25:00,71.6,65.8,0.00,WSW,240,0.0,0.0,82,0.00,,---,0.00,VWS V13.01,2013-07-24 00:25:00,
2013-07-23 20:30:00,71.4,66.0,0.00,WSW,252,0.0,2.7,83,0.00,,---,0.00,VWS V13.01,2013-07-24 00:30:00,
2013-07-23 20:35:00,71.4,66.0,0.00,SW,236,2.2,5.4,83,0.00,,---,0.00,VWS V13.01,2013-07-24 00:35:00,
2013-07-23 20:40:00,71.2,66.2,0.00,WSW,251,0.0,0.0,84,0.00,,---,0.00,VWS V13.01,2013-07-24 00:40:00,
2013-07-23 20:46:00,71.1,66.3,0.00,SW,235,0.0,0.0,85,0.00,,---,0.00,VWS V13.01,2013-07-24 00:46:00,
2013-07-23 20:51:00,70.9,66.5,0.00,WSW,239,0.0,4.0,86,0.00,,---,0.00,VWS V13.01,2013-07-24 00:51:00,
2013-07-23 20:56:00,70.9,66.5,0.00,WSW,255,2.2,4.0,86,0.00,,---,0.00,VWS V13.01,2013-07-24 00:56:00,
2013-07-23 21:02:00,70.7,66.7,0.00,WSW,256,0.0,3.6,87,0.00,,---,0.00,VWS V13.01,2013-07-24 01:02:00,
2013-07-23 21:07:00,70.5,66.5,0.00,SW,233,2.2,4.0,87,0.00,,---,0.00,VWS V13.01,2013-07-24 01:07:00,
2013-07-23 21:12:00,70.5,66.8,0.00,SW,215,2.7,3.1,88,0.00,,---,0.00,VWS V13.01,2013-07-24 01:12:00,
2013-07-23 21:17:00,70.5,66.8,0.00,WSW,238,3.1,5.8,88,0.00,,---,0.00,VWS V13.01,2013-07-24 01:17:00,
2013-07-23 21:23:00,70.5,66.8,0.00,West,265,3.1,6.3,88,0.00,,---,0.00,VWS V13.01,2013-07-24 01:23:00,
2013-07-23 21:28:00,70.3,66.9,0.00,WNW,282,3.6,6.3,89,0.00,,---,0.00,VWS V13.01,2013-07-24 01:28:00,
2013-07-23 21:33:00,70.0,64.9,0.00,WNW,295,0.0,3.1,84,0.00,,---,0.00,VWS V13.01,2013-07-24 01:33:00,
2013-07-23 21:39:00,69.4,63.7,0.00,West,277,0.0,3.1,82,0.00,,---,0.00,VWS V13.01,2013-07-24 01:39:00,
2013-07-23 21:44:00,68.9,62.8,0.00,NW,307,0.0,0.0,81,0.00,,---,0.00,VWS V13.01,2013-07-24 01:44:00,
2013-07-23 21:49:00,68.2,61.4,0.00,WSW,245,0.0,0.0,79,0.00,,---,0.00,VWS V13.01,2013-07-24 01:49:00,
2013-07-23 21:55:00,67.6,61.6,0.00,WSW,245,0.0,0.0,81,0.00,,---,0.00,VWS V13.01,2013-07-24 01:55:00,
2013-07-23 22:00:00,67.5,61.4,0.00,WSW,245,0.0,0.0,81,0.00,,---,0.00,VWS V13.01,2013-07-24 02:00:00,
2013-07-23 22:06:00,67.3,61.6,0.00,SE,124,0.0,0.0,82,0.00,,---,0.00,VWS V13.01,2013-07-24 02:06:00,
2013-07-23 22:11:00,66.9,61.6,0.00,SE,124,0.0,0.0,83,0.00,,---,0.00,VWS V13.01,2013-07-24 02:11:00,
2013-07-23 22:17:00,66.7,61.4,0.00,SE,124,0.0,0.0,83,0.00,,---,0.00,VWS V13.01,2013-07-24 02:17:00,
2013-07-23 22:23:00,66.7,61.8,0.00,SE,125,0.0,0.0,84,0.00,,---,0.00,VWS V13.01,2013-07-24 02:23:00,
2013-07-23 22:29:00,66.7,62.4,0.00,SW,235,0.0,0.0,86,0.00,,---,0.00,VWS V13.01,2013-07-24 02:29:00,
2013-07-23 22:34:00,66.6,62.2,0.00,SW,233,0.0,0.0,86,0.00,,---,0.00,VWS V13.01,2013-07-24 02:34:00,
2013-07-23 22:39:00,66.6,62.6,0.00,SW,235,0.0,0.0,87,0.00,,---,0.00,VWS V13.01,2013-07-24 02:39:00,
2013-07-23 22:45:00,66.4,62.4,0.00,SW,236,0.0,0.0,87,0.00,,---,0.00,VWS V13.01,2013-07-24 02:45:00,
2013-07-23 22:50:00,66.2,62.5,0.00,SW,236,0.0,0.0,88,0.00,,---,0.00,VWS V13.01,2013-07-24 02:50:00,
2013-07-23 22:55:00,66.2,62.5,0.00,WSW,245,0.0,0.0,88,0.00,,---,0.00,VWS V13.01,2013-07-24 02:55:00,
2013-07-23 23:01:00,66.2,62.9,0.00,West,271,0.0,0.0,89,0.00,,---,0.00,VWS V13.01,2013-07-24 03:01:00,
2013-07-23 23:07:00,66.2,62.9,0.00,West,271,0.0,0.0,89,0.00,,---,0.00,VWS V13.01,2013-07-24 03:07:00,
2013-07-23 23:13:00,66.2,62.9,0.00,West,272,0.0,0.0,89,0.00,,---,0.00,VWS V13.01,2013-07-24 03:13:00,
2013-07-23 23:18:00,66.0,62.7,0.00,WSW,237,0.0,0.0,89,0.00,,---,0.00,VWS V13.01,2013-07-24 03:18:00,
2013-07-23 23:23:00,65.8,62.2,0.00,NW,306,0.0,0.0,88,0.00,,---,0.00,VWS V13.01,2013-07-24 03:23:00,
2013-07-23 23:28:00,65.7,61.0,0.00,NW,306,0.0,0.0,85,0.00,,---,0.00,VWS V13.01,2013-07-24 03:28:00,
2013-07-23 23:35:00,65.7,61.4,0.00,NW,306,0.0,0.0,86,0.00,,---,0.00,VWS V13.01,2013-07-24 03:35:00,
2013-07-23 23:40:00,65.5,61.2,0.00,NW,306,0.0,0.0,86,0.00,,---,0.00,VWS V13.01,2013-07-24 03:40:00,
2013-07-23 23:46:00,65.5,61.2,0.00,SW,214,0.0,2.2,86,0.00,,---,0.00,VWS V13.01,2013-07-24 03:46:00,
2013-07-23 23:51:00,65.3,60.7,0.00,SW,214,0.0,0.0,85,0.00,,---,0.00,VWS V13.01,2013-07-24 03:51:00,
2013-07-23 23:56:00,65.3,60.7,0.00,SW,214,0.0,0.0,85,0.00,,---,0.00,VWS V13.01,2013-07-24 03:56:00,